| time (UTC) | temp F | wind direction | speed knots | gust knots | rain 1hr in | rain 24hr in | rain mn in | humidity % | barometer mb |
| 20260504204555 | 70 | 0 | 0.9 | 7.0 | 0.00 | 0.00 | 0.00 | 37 | 1004.9 |
| 20260504203103 | 71 | 0 | 0.0 | 4.3 | 0.00 | 0.00 | 0.00 | 38 | 1005.0 |
| 20260504201616 | 72 | 108 | 0.9 | 3.5 | 0.00 | 0.00 | 0.00 | 35 | 1004.9 |
| 20260504200053 | 72 | 251 | 0.9 | 5.2 | 0.00 | 0.00 | 0.00 | 32 | 1004.9 |
| 20260504194554 | 72 | 149 | 0.9 | 5.2 | 0.00 | 0.00 | 0.00 | 34 | 1005.0 |
| 20260504193052 | 73 | 85 | 0.9 | 6.1 | 0.00 | 0.00 | 0.00 | 35 | 1005.0 |
| 20260504191600 | 72 | 167 | 0.9 | 5.2 | 0.00 | 0.00 | 0.00 | 32 | 1005.0 |
| 20260504190113 | 72 | 0 | 0.0 | 3.5 | 0.00 | 0.00 | 0.00 | 38 | 1005.1 |
| 20260504184615 | 70 | 155 | 0.9 | 4.3 | 0.00 | 0.00 | 0.00 | 37 | 1005.2 |
| 20260504183053 | 72 | 0 | 0.9 | 5.2 | 0.00 | 0.00 | 0.00 | 34 | 1005.3 |
| 20260504181549 | 73 | 122 | 1.7 | 8.7 | 0.00 | 0.00 | 0.00 | 34 | 1005.5 |
| 20260504180054 | 72 | 333 | 1.7 | 5.2 | 0.00 | 0.00 | 0.00 | 33 | 1005.4 |
| 20260504174556 | 71 | 41 | 0.9 | 9.6 | 0.00 | 0.00 | 0.00 | 32 | 1005.3 |
| 20260504173057 | 72 | 259 | 0.9 | 7.0 | 0.00 | 0.00 | 0.00 | 36 | 1005.5 |
| 20260504171608 | 72 | 73 | 0.9 | 4.3 | 0.00 | 0.00 | 0.00 | 32 | 1005.5 |
| 20260504140107 | 60 | 159 | 1.7 | 3.5 | 0.00 | 0.00 | 0.00 | 44 | 1007.4 |
| 20260504120108 | 49 | 0 | 0.0 | 0.9 | 0.00 | 0.00 | 0.00 | 67 | 1008.4 |
| 20260504110106 | 41 | 0 | 0.0 | 0.0 | 0.00 | 0.00 | 0.00 | 86 | 1008.4 |
| 20260504081555 | 41 | 0 | 0.0 | 0.0 | 0.00 | 0.00 | 0.00 | 83 | 1008.6 |
| 20260504044554 | 38 | 0 | 0.0 | 0.0 | 0.00 | 0.00 | 0.00 | 83 | 1008.6 |
| 20260504043057 | 37 | 0 | 0.0 | 0.0 | 0.00 | 0.00 | 0.00 | 81 | 1008.6 |
| 20260504041553 | 37 | 0 | 0.0 | 0.0 | 0.00 | 0.00 | 0.00 | 82 | 1008.5 |
| 20260504040058 | 37 | 0 | 0.0 | 0.0 | 0.00 | 0.00 | 0.00 | 83 | 1008.4 |
| 20260504034553 | 36 | 0 | 0.0 | 0.0 | 0.00 | 0.00 | 0.00 | 84 | 1008.5 |
| 20260504033104 | 36 | 0 | 0.0 | 0.0 | 0.00 | 0.00 | 0.00 | 84 | 1008.4 |
| 20260504031601 | 36 | 0 | 0.0 | 0.0 | 0.00 | 0.00 | 0.00 | 84 | 1008.2 |
| 20260504030055 | 36 | 0 | 0.0 | 0.0 | 0.00 | 0.00 | 0.00 | 83 | 1008.2 |
| 20260504024558 | 36 | 0 | 0.0 | 0.0 | 0.00 | 0.00 | 0.00 | 83 | 1008.2 |
| 20260504023052 | 37 | 0 | 0.0 | 0.0 | 0.00 | 0.00 | 0.00 | 82 | 1008.3 |
| 20260504021555 | 37 | 0 | 0.0 | 0.0 | 0.00 | 0.00 | 0.00 | 81 | 1008.2 |
| 20260504020052 | 38 | 0 | 0.0 | 0.0 | 0.00 | 0.00 | 0.00 | 80 | 1008.1 |
| 20260504014552 | 38 | 0 | 0.0 | 0.0 | 0.00 | 0.00 | 0.00 | 79 | 1008.1 |
| 20260504013106 | 38 | 0 | 0.0 | 0.0 | 0.00 | 0.00 | 0.00 | 79 | 1008.0 |
| 20260504011553 | 39 | 0 | 0.0 | 0.0 | 0.00 | 0.00 | 0.00 | 78 | 1007.9 |
| 20260504010057 | 39 | 0 | 0.0 | 0.0 | 0.00 | 0.00 | 0.00 | 78 | 1007.7 |
| 20260504004603 | 40 | 0 | 0.0 | 0.0 | 0.00 | 0.01 | 0.00 | 75 | 1007.5 |
| 20260504003100 | 41 | 0 | 0.0 | 0.0 | 0.00 | 0.01 | 0.00 | 71 | 1007.4 |
| 20260504001557 | 42 | 0 | 0.0 | 0.0 | 0.00 | 0.01 | 0.00 | 68 | 1007.4 |
| 20260504000054 | 43 | 0 | 0.0 | 0.0 | 0.00 | 0.01 | 0.00 | 66 | 1007.1 |
| 20260503234549 | 44 | 0 | 0.0 | 0.0 | 0.00 | 0.02 | 0.00 | 63 | 1007.0 |
| 20260503233049 | 45 | 0 | 0.0 | 0.0 | 0.00 | 0.02 | 0.00 | 62 | 1006.8 |
| 20260503231555 | 47 | 0 | 0.0 | 0.0 | 0.00 | 0.02 | 0.00 | 59 | 1006.8 |
| 20260503230052 | 48 | 0 | 0.0 | 0.9 | 0.00 | 0.02 | 0.00 | 57 | 1006.5 |
| 20260503224551 | 49 | 0 | 0.0 | 0.9 | 0.00 | 0.09 | 0.00 | 52 | 1006.3 |
| 20260503223050 | 49 | 141 | 0.9 | 3.5 | 0.00 | 0.09 | 0.00 | 46 | 1006.1 |
| 20260503221552 | 49 | 123 | 0.9 | 3.5 | 0.00 | 0.09 | 0.00 | 47 | 1005.8 |
| 20260503220100 | 50 | 75 | 1.7 | 5.2 | 0.00 | 0.09 | 0.00 | 46 | 1005.7 |
| 20260503214547 | 50 | 215 | 0.9 | 6.1 | 0.00 | 0.12 | 0.00 | 44 | 1005.7 |
| 20260503213055 | 50 | 153 | 0.9 | 5.2 | 0.00 | 0.12 | 0.00 | 47 | 1005.6 |
| 20260503211603 | 50 | 72 | 0.9 | 5.2 | 0.00 | 0.12 | 0.00 | 47 | 1005.5 |
| 20260503210054 | 51 | 0 | 0.0 | 5.2 | 0.00 | 0.12 | 0.00 | 46 | 1005.3 |